• In Belarus
  • List of Countries
  • For 7 days
  • Water Temperature
  • Satellite Maps
  • Weather Map
  • Weather Widgets
  • user-avatar
    Login

    Hourly Weather Mandalay

    Today, 13 November, Tuesday

    Time Temperature Precipitation Wind Pressure Humidity
    00:00 +25°C° 0 mm 1 mps 752 mmHg 84%
    01:00 +25°C° 0.2 mm 1 mps 752 mmHg 85%
    02:00 +25°C° 0.2 mm 1 mps 752 mmHg 86%
    03:00 +25°C° 0.2 mm 1 mps 751 mmHg 87%
    04:00 +22°C° 0.4 mm 0 mps 752 mmHg 88%
    05:00 +22°C° 0.4 mm 0 mps 752 mmHg 88%
    06:00 +22°C° 0.4 mm 0 mps 752 mmHg 89%
    07:00 +24°C° 0.2 mm 0 mps 752 mmHg 84%
    08:00 +25°C° 0.2 mm 0 mps 752 mmHg 79%
    09:00 +29°C° 0.2 mm 1 mps 753 mmHg 74%
    10:00 +30°C° 0.3 mm 1 mps 752 mmHg 71%
    11:00 +30°C° 0.3 mm 1 mps 752 mmHg 68%
    12:00 +31°C° 0.3 mm 2 mps 751 mmHg 65%
    13:00 +31°C° 0.1 mm 1 mps 750 mmHg 65%
    14:00 +31°C° 0.1 mm 1 mps 750 mmHg 65%
    15:00 +31°C° 0.1 mm 1 mps 749 mmHg 66%
    16:00 +30°C° 0 mm 1 mps 749 mmHg 70%
    17:00 +28°C° 0 mm 1 mps 749 mmHg 74%
    18:00 +25°C° 0 mm 0 mps 750 mmHg 79%
    19:00 +24°C° 0 mm 0 mps 750 mmHg 80%
    20:00 +26°C° 0 mm 1 mps 750 mmHg 80%
    21:00 +26°C° 0 mm 1 mps 751 mmHg 81%
    22:00 +25°C° 0 mm 1 mps 751 mmHg 82%
    23:00 +25°C° 0 mm 1 mps 751 mmHg 83%

    Tomorrow, 14 November, Wednesday

    Time Temperature Precipitation Wind Pressure Humidity
    00:00 +25°C° 0 mm 1 mps 751 mmHg 84%
    01:00 +25°C° 0 mm 1 mps 751 mmHg 84%
    02:00 +25°C° 0 mm 1 mps 751 mmHg 84%
    03:00 +24°C° 0 mm 1 mps 751 mmHg 85%
    04:00 +24°C° 0 mm 1 mps 751 mmHg 85%
    05:00 +24°C° 0 mm 1 mps 751 mmHg 85%
    06:00 +24°C° 0 mm 1 mps 751 mmHg 85%
    07:00 +26°C° 0 mm 1 mps 752 mmHg 80%
    08:00 +27°C° 0 mm 1 mps 753 mmHg 75%
    09:00 +29°C° 0 mm 1 mps 753 mmHg 69%
    10:00 +30°C° 0.2 mm 1 mps 752 mmHg 67%
    11:00 +31°C° 0.2 mm 1 mps 752 mmHg 64%
    12:00 +32°C° 0.2 mm 2 mps 751 mmHg 62%
    13:00 +31°C° 0.2 mm 2 mps 751 mmHg 63%
    14:00 +31°C° 0.2 mm 2 mps 750 mmHg 63%
    15:00 +31°C° 0.2 mm 2 mps 749 mmHg 64%
    16:00 +30°C° 0 mm 1 mps 750 mmHg 68%
    17:00 +28°C° 0 mm 1 mps 750 mmHg 73%
    18:00 +27°C° 0 mm 1 mps 750 mmHg 77%
    19:00 +26°C° 0 mm 1 mps 751 mmHg 78%
    20:00 +26°C° 0 mm 1 mps 752 mmHg 79%
    21:00 +24°C° 0 mm 0 mps 752 mmHg 80%
    22:00 +23°C° 0 mm 0 mps 752 mmHg 80%
    23:00 +23°C° 0 mm 0 mps 752 mmHg 81%

    Day after tomorrow, 15 November, Thursday

    Time Temperature Precipitation Wind Pressure Humidity
    00:00 +23°C° 0 mm 0 mps 752 mmHg 82%
    01:00 +25°C° 0 mm 1 mps 752 mmHg 82%
    02:00 +24°C° 0 mm 1 mps 752 mmHg 83%
    03:00 +24°C° 0 mm 1 mps 752 mmHg 84%
    04:00 +24°C° 0 mm 1 mps 752 mmHg 84%
    05:00 +24°C° 0 mm 1 mps 752 mmHg 84%
    06:00 +23°C° 0 mm 1 mps 753 mmHg 85%
    07:00 +25°C° 0 mm 1 mps 753 mmHg 79%
    08:00 +27°C° 0 mm 1 mps 754 mmHg 73%
    09:00 +29°C° 0 mm 1 mps 755 mmHg 68%
    10:00 +30°C° 0.2 mm 1 mps 754 mmHg 65%
    11:00 +31°C° 0.2 mm 2 mps 753 mmHg 63%
    12:00 +32°C° 0.2 mm 2 mps 752 mmHg 61%
    13:00 +32°C° 0.1 mm 2 mps 752 mmHg 61%
    14:00 +32°C° 0.1 mm 2 mps 751 mmHg 61%
    15:00 +32°C° 0.1 mm 2 mps 751 mmHg 61%
    16:00 +30°C° 0 mm 1 mps 751 mmHg 66%
    17:00 +28°C° 0 mm 1 mps 751 mmHg 71%
    18:00 +26°C° 0 mm 1 mps 752 mmHg 76%
    19:00 +26°C° 0 mm 1 mps 752 mmHg 77%
    20:00 +25°C° 0 mm 1 mps 753 mmHg 79%
    21:00 +25°C° 0 mm 1 mps 753 mmHg 81%
    22:00 +25°C° 0 mm 1 mps 753 mmHg 82%
    23:00 +24°C° 0 mm 1 mps 753 mmHg 83%

    16 November, Friday

    Time Temperature Precipitation Wind Pressure Humidity
    00:00 +24°C° 0 mm 1 mps 753 mmHg 84%
    01:00 +24°C° 0 mm 1 mps 753 mmHg 84%
    02:00 +23°C° 0 mm 1 mps 752 mmHg 85%
    03:00 +23°C° 0 mm 1 mps 752 mmHg 85%
    04:00 +23°C° 0 mm 1 mps 753 mmHg 85%
    05:00 +22°C° 0 mm 1 mps 753 mmHg 85%
    06:00 +22°C° 0 mm 1 mps 754 mmHg 85%
    07:00 +24°C° 0 mm 1 mps 754 mmHg 78%
    08:00 +26°C° 0 mm 1 mps 755 mmHg 71%
    09:00 +28°C° 0 mm 1 mps 755 mmHg 63%
    10:00 +29°C° 0 mm 1 mps 754 mmHg 59%
    11:00 +31°C° 0 mm 2 mps 753 mmHg 55%
    12:00 +32°C° 0 mm 2 mps 753 mmHg 51%
    13:00 +31°C° 0 mm 2 mps 752 mmHg 52%
    14:00 +31°C° 0 mm 2 mps 751 mmHg 53%
    15:00 +31°C° 0 mm 2 mps 751 mmHg 54%
    16:00 +29°C° 0 mm 1 mps 751 mmHg 60%
    17:00 +27°C° 0 mm 1 mps 751 mmHg 65%
    18:00 +25°C° 0 mm 1 mps 751 mmHg 71%
    19:00 +25°C° 0 mm 1 mps 752 mmHg 72%
    20:00 +24°C° 0 mm 1 mps 752 mmHg 74%
    21:00 +24°C° 0 mm 1 mps 753 mmHg 75%
    22:00 +23°C° 0 mm 1 mps 753 mmHg 76%
    23:00 +23°C° 0 mm 1 mps 753 mmHg 77%

    17 November, Saturday

    Time Temperature Precipitation Wind Pressure Humidity
    00:00 +23°C° 0 mm 1 mps 752 mmHg 78%
    01:00 +22°C° 0 mm 1 mps 752 mmHg 79%
    02:00 +22°C° 0 mm 1 mps 752 mmHg 79%
    03:00 +22°C° 0 mm 1 mps 752 mmHg 80%
    04:00 +21°C° 0 mm 1 mps 752 mmHg 80%
    05:00 +21°C° 0 mm 1 mps 753 mmHg 80%
    06:00 +21°C° 0 mm 1 mps 753 mmHg 81%
    07:00 +23°C° 0 mm 1 mps 754 mmHg 74%
    08:00 +25°C° 0 mm 1 mps 754 mmHg 67%
    09:00 +28°C° 0 mm 1 mps 755 mmHg 61%
    10:00 +29°C° 0 mm 1 mps 754 mmHg 57%
    11:00 +30°C° 0 mm 2 mps 753 mmHg 53%
    12:00 +31°C° 0 mm 2 mps 753 mmHg 49%
    13:00 +31°C° 0 mm 2 mps 752 mmHg 50%
    14:00 +31°C° 0 mm 2 mps 751 mmHg 51%
    15:00 +31°C° 0 mm 1 mps 751 mmHg 51%
    16:00 +29°C° 0 mm 1 mps 751 mmHg 57%
    17:00 +26°C° 0 mm 1 mps 751 mmHg 63%
    18:00 +22°C° 0 mm 0 mps 752 mmHg 68%
    19:00 +24°C° 0 mm 1 mps 752 mmHg 70%
    20:00 +23°C° 0 mm 1 mps 753 mmHg 71%
    21:00 +23°C° 0 mm 1 mps 753 mmHg 73%
    22:00 +22°C° 0 mm 1 mps 753 mmHg 74%
    23:00 +22°C° 0 mm 1 mps 753 mmHg 74%

    18 November, Sunday

    Time Temperature Precipitation Wind Pressure Humidity
    00:00 +22°C° 0 mm 1 mps 753 mmHg 75%
    01:00 +21°C° 0 mm 1 mps 753 mmHg 75%
    02:00 +21°C° 0 mm 1 mps 753 mmHg 76%
    03:00 +21°C° 0 mm 1 mps 753 mmHg 76%
    04:00 +20°C° 0 mm 1 mps 753 mmHg 77%
    05:00 +20°C° 0 mm 1 mps 754 mmHg 77%
    06:00 +20°C° 0 mm 1 mps 754 mmHg 78%
    07:00 +22°C° 0 mm 1 mps 754 mmHg 71%
    08:00 +24°C° 0 mm 1 mps 755 mmHg 65%
    09:00 +27°C° 0 mm 1 mps 755 mmHg 58%
    10:00 +28°C° 0 mm 2 mps 755 mmHg 54%
    11:00 +29°C° 0 mm 2 mps 754 mmHg 51%
    12:00 +31°C° 0 mm 2 mps 753 mmHg 47%
    13:00 +31°C° 0 mm 2 mps 753 mmHg 48%
    14:00 +30°C° 0 mm 2 mps 752 mmHg 49%
    15:00 +30°C° 0 mm 2 mps 752 mmHg 50%
    16:00 +28°C° 0 mm 1 mps 752 mmHg 56%
    17:00 +26°C° 0 mm 1 mps 752 mmHg 63%
    18:00 +24°C° 0 mm 1 mps 753 mmHg 69%
    19:00 +23°C° 0 mm 1 mps 753 mmHg 71%
    20:00 +23°C° 0 mm 1 mps 754 mmHg 72%
    21:00 +22°C° 0 mm 1 mps 754 mmHg 74%
    22:00 +22°C° 0 mm 1 mps 754 mmHg 75%
    23:00 +21°C° 0 mm 1 mps 754 mmHg 75%
    Show more